TimePDT,TemperatureF,Dew PointF,Humidity,Sea Level PressureIn,VisibilityMPH,Wind Direction,Wind SpeedMPH,Gust SpeedMPH,PrecipitationIn,Events,Conditions,WindDirDegrees,DateUTC
12:54 AM,64.0,57.9,80,30.00,10.0,Calm,Calm,-,N/A,,Clear,0,2013-08-05 07:54:00
1:54 AM,59.0,55.9,90,29.99,10.0,Calm,Calm,-,N/A,,Clear,0,2013-08-05 08:54:00
2:54 AM,57.0,55.9,96,29.99,9.0,Calm,Calm,-,N/A,,Clear,0,2013-08-05 09:54:00
3:54 AM,55.9,54.0,93,30.00,10.0,Calm,Calm,-,N/A,,Clear,0,2013-08-05 10:54:00
4:33 AM,55.0,54.0,96,30.00,1.8,Calm,Calm,-,N/A,,Clear,0,2013-08-05 11:33:00
4:40 AM,54.0,54.0,100,30.00,3.0,Calm,Calm,-,N/A,,Clear,0,2013-08-05 11:40:00
4:54 AM,55.0,54.0,96,30.00,7.0,Calm,Calm,-,N/A,,Clear,0,2013-08-05 11:54:00
5:12 AM,53.1,53.1,100,30.00,7.0,Calm,Calm,-,N/A,,Scattered Clouds,0,2013-08-05 12:12:00
5:26 AM,53.1,53.1,100,30.01,3.0,Calm,Calm,-,N/A,,Mostly Cloudy,0,2013-08-05 12:26:00
5:54 AM,53.1,52.0,96,30.01,9.0,South,3.5,-,N/A,,Overcast,190,2013-08-05 12:54:00
6:21 AM,54.0,53.1,97,30.01,5.0,SSW,3.5,-,N/A,,Overcast,200,2013-08-05 13:21:00
6:26 AM,54.0,54.0,100,30.01,1.8,South,4.6,-,N/A,,Overcast,190,2013-08-05 13:26:00
6:29 AM,54.0,54.0,100,30.01,0.8,South,4.6,-,N/A,,Overcast,180,2013-08-05 13:29:00
6:39 AM,54.0,54.0,100,30.02,0.2,South,4.6,-,N/A,Fog,Fog,190,2013-08-05 13:39:00
6:54 AM,54.0,54.0,100,30.02,0.2,SSW,3.5,-,N/A,Fog,Fog,200,2013-08-05 13:54:00
7:31 AM,54.0,54.0,100,30.02,0.8,SSW,3.5,-,N/A,,Mist,210,2013-08-05 14:31:00
7:54 AM,55.0,55.0,100,30.03,0.2,SSW,3.5,-,N/A,Fog,Fog,200,2013-08-05 14:54:00
8:25 AM,55.9,55.0,97,30.03,0.5,South,4.6,-,N/A,Fog,Fog,180,2013-08-05 15:25:00
8:36 AM,55.9,55.0,97,30.03,1.0,South,4.6,-,N/A,,Overcast,190,2013-08-05 15:36:00
8:42 AM,55.9,55.0,97,30.03,2.0,South,3.5,-,N/A,,Overcast,170,2013-08-05 15:42:00
8:54 AM,55.9,55.0,97,30.03,2.0,South,3.5,-,N/A,,Overcast,180,2013-08-05 15:54:00
9:25 AM,57.0,55.9,96,30.04,3.0,WSW,3.5,-,N/A,,Overcast,240,2013-08-05 16:25:00
9:52 AM,59.0,55.4,88,30.04,5.0,Calm,Calm,-,N/A,,Overcast,0,2013-08-05 16:52:00
9:54 AM,60.1,55.9,86,30.04,5.0,SW,3.5,-,N/A,,Overcast,220,2013-08-05 16:54:00
10:11 AM,62.1,57.0,84,30.04,10.0,Calm,Calm,-,N/A,,Scattered Clouds,0,2013-08-05 17:11:00
10:54 AM,66.9,57.0,70,30.03,10.0,NNW,3.5,-,N/A,,Clear,330,2013-08-05 17:54:00
11:54 AM,73.0,57.9,59,30.03,10.0,NNW,5.8,-,N/A,,Clear,330,2013-08-05 18:54:00
12:54 PM,77.0,57.9,52,30.01,10.0,Calm,Calm,-,N/A,,Clear,0,2013-08-05 19:54:00
1:54 PM,81.0,57.0,44,30.00,10.0,Calm,Calm,-,N/A,,Clear,0,2013-08-05 20:54:00
2:54 PM,82.9,55.9,39,29.98,10.0,Variable,3.5,-,N/A,,Clear,0,2013-08-05 21:54:00
3:54 PM,86.0,59.0,40,29.96,10.0,North,5.8,-,N/A,,Clear,350,2013-08-05 22:54:00
4:54 PM,84.9,59.0,41,29.94,10.0,NE,10.4,-,N/A,,Clear,40,2013-08-05 23:54:00
5:54 PM,82.9,59.0,44,29.94,10.0,NE,8.1,-,N/A,,Clear,40,2013-08-06 00:54:00
6:54 PM,82.0,57.0,42,29.94,10.0,North,6.9,-,N/A,,Clear,360,2013-08-06 01:54:00
7:54 PM,80.1,45.0,29,29.94,10.0,Calm,Calm,-,N/A,,Clear,0,2013-08-06 02:54:00
8:54 PM,73.0,46.0,38,29.95,10.0,Calm,Calm,-,N/A,,Clear,0,2013-08-06 03:54:00
9:54 PM,66.9,48.9,52,29.96,10.0,SE,4.6,-,N/A,,Clear,130,2013-08-06 04:54:00
10:54 PM,61.0,51.1,70,29.97,10.0,South,3.5,-,N/A,,Clear,170,2013-08-06 05:54:00
11:54 PM,59.0,51.1,75,29.98,10.0,SSW,3.5,-,N/A,,Clear,200,2013-08-06 06:54:00